Location: Mexico
(19.4000°N, 99.1500°W)
Time: 12:45:25
(UTC-06:00)

ISS - Pass Details

Date: 25 March 2017
Orbit: 401 x 409 km, 51.6° (Epoch: 01 May)

Event Time Altitude Azimuth Distance (km) Brightness Sun altitude
Rises 19:44:51 0° 226° (SW) 2,298 0.6 -13.9°
Reaches altitude 10° 19:46:56 10° 231° (SW) 1,443 -0.4 -14.4°
Maximum altitude 19:50:06 54° 310° (NW) 491 -3.1 -15.2°
Enters shadow 19:53:18 10° 29° (NNE) 1,451 -1.2 -15.9°
